Weather History for San Angelo, TX

Change the Weather History Date:

Friday, August 16, 2013

  Actual Average Record
Temperature  
Mean Temperature 82 °F 83 °F  
Max Temperature 97 °F 95 °F 106 °F (1911)
Min Temperature 67 °F 71 °F 62 °F (1992)
Degree Days  
Heating Degree Days 0 0  
Month to date heating degree days 0 0  
Since 1 June heating degree days 0 0  
Since 1 July heating degree days 0 0  
Cooling Degree Days 17 18  
Month to date cooling degree days 354 298  
Year to date cooling degree days 2065 1785  
Since 1 June cooling degree days 1469 1325  
Growing Degree Days 32 (Base 50)    
Moisture  
Dew Point 59 °F    
Average Humidity 54    
Maximum Humidity 87    
Minimum Humidity 20    
Precipitation  
Precipitation T in 0.08 in 2.00 in (1942)
Month to date precipitation 0.23 0.95  
Year to date precipitation 11.18 12.76  
Sea Level Pressure  
Sea Level Pressure 30.00 in    
Wind  
Wind Speed 8 mph (ENE)    
Max Wind Speed 28 mph    
Max Gust Speed 39 mph    
Visibility 10 miles    
Events      
T = Trace of Precipitation, MM = Missing Value Source: NWS Daily Summary

Daily Weather History Graph

Daily Weather History Graph

Search for Another Location

Airport:

Trip Planner

Search our weather history database for the weather conditions in past years. The results will help you decide how hot, cold, wet, or windy it might be!

Date:

Astronomy

Aug. 16, 2013 Rise Set
Actual Time 7:08 AM CDT 8:23 PM CDT
Civil Twilight 6:42 AM CDT 8:49 PM CDT
Nautical Twilight 6:12 AM CDT 9:19 PM CDT
Astronomical Twilight 5:40 AM CDT 9:50 PM CDT
Moon 4:37 PM CDT (8/16) 2:19 AM CDT (8/16)
Length of Visible Light 14h 06m
Length of Day
13h 15m
Waxing Gibbous, 75% of the Moon is Illuminated
Aug 16
Waxing Gibbous
Aug 20
Full
Aug 28
Last Quarter
Sep 5
New
Sep 12
First Quarter

Hourly Weather History & Observations

Time (CDT) Temp. Heat Index Dew Point Humidity Pressure Visibility Wind Dir Wind Speed Gust Speed Precip Events Conditions
12:51 AM 73.0 °F - 64.0 °F 73% 29.98 in 10.0 mi East 3.5 mph - N/A   Clear
1:51 AM 71.1 °F - 63.0 °F 75% 29.96 in 10.0 mi Calm Calm - N/A   Clear
2:51 AM 70.0 °F - 63.0 °F 78% 29.96 in 10.0 mi Calm Calm - N/A   Clear
3:51 AM 70.0 °F - 64.0 °F 81% 29.95 in 10.0 mi Calm Calm - N/A   Clear
4:51 AM 69.1 °F - 64.0 °F 84% 29.94 in 10.0 mi Calm Calm - N/A   Clear
5:51 AM 69.1 °F - 63.0 °F 81% 29.94 in 10.0 mi Calm Calm - N/A   Clear
6:51 AM 66.9 °F - 62.1 °F 84% 29.95 in 10.0 mi Calm Calm - N/A   Clear
7:51 AM 69.1 °F - 63.0 °F 81% 29.98 in 10.0 mi Calm Calm - N/A   Clear
8:46 AM 71.6 °F - 64.4 °F 78% 30.14 in 10.0 mi NE 20.7 mph 31.1 mph N/A   Mostly Cloudy
8:51 AM 71.1 °F - 66.0 °F 84% 30.09 in 10.0 mi NE 20.7 mph 29.9 mph N/A   Mostly Cloudy
9:40 AM 71.6 °F - 60.8 °F 69% 30.20 in 10.0 mi ENE 21.9 mph 36.8 mph N/A   Overcast
9:51 AM 72.0 °F - 59.0 °F 64% 30.14 in 8.0 mi NE 20.7 mph 31.1 mph N/A   Overcast
10:51 AM 68.0 °F - 60.1 °F 76% 30.17 in 10.0 mi NE 16.1 mph 29.9 mph 0.00 in   Overcast
11:51 AM 73.9 °F - 60.1 °F 62% 30.10 in 10.0 mi East 21.9 mph 27.6 mph 0.00 in   Clear
12:51 PM 82.9 °F 82.0 °F 55.0 °F 38% 30.04 in 10.0 mi East 15.0 mph 24.2 mph N/A   Clear
1:51 PM 89.1 °F - 51.1 °F 27% 29.99 in 10.0 mi East 12.7 mph - N/A   Clear
2:51 PM 91.9 °F - 51.1 °F 25% 29.95 in 4.0 mi SSE 4.6 mph - N/A   Haze
3:51 PM 95.0 °F - 50.0 °F 22% 29.93 in 10.0 mi Variable 3.5 mph - N/A   Clear
4:51 PM 97.0 °F - 48.9 °F 19% 29.92 in 10.0 mi Variable 3.5 mph - N/A   Clear
5:51 PM 96.1 °F - 48.0 °F 19% 29.91 in 10.0 mi NE 9.2 mph - N/A   Clear
6:51 PM 93.0 °F 91.1 °F 55.0 °F 28% 29.93 in 10.0 mi ENE 10.4 mph - N/A   Clear
7:51 PM 90.0 °F 87.7 °F 54.0 °F 29% 29.93 in 10.0 mi NE 11.5 mph - N/A   Clear
8:51 PM 86.0 °F 84.9 °F 57.0 °F 37% 29.96 in 10.0 mi ENE 13.8 mph 19.6 mph N/A   Clear
9:51 PM 82.0 °F 82.0 °F 57.9 °F 44% 29.99 in 10.0 mi ENE 11.5 mph - N/A   Clear
10:51 PM 78.1 °F - 57.9 °F 50% 30.02 in 10.0 mi East 5.8 mph - N/A   Clear
11:51 PM 75.0 °F - 59.0 °F 57% 30.03 in 10.0 mi ENE 5.8 mph - N/A   Clear